Weather reports worldwide

Advertisment
Belgrad, Serbia (13274): temperature & dewpoint: 22.05.2017 20:00:00 - 28.05.2017 20:00:00 (CEST)Belgrad, Serbia (13274): wind speed: 22.05.2017 20:00:00 - 28.05.2017 20:00:00 (CEST)Belgrad, Serbia (13274): wind direction: 22.05.2017 20:00:00 - 28.05.2017 20:00:00 (CEST)Belgrad, Serbia (13274): reduced air pressure: 22.05.2017 20:00:00 - 28.05.2017 20:00:00 (CEST)Belgrad, Serbia (13274): visibility: 22.05.2017 20:00:00 - 28.05.2017 20:00:00 (CEST)
Date & Time tt [°C] td [°C] ff [km/h] ff [kn] dd ppp [hPa] vv [km]
28.05.2017 20:00:00 21,9 10,2 7 4 ESE 1021,1 20
28.05.2017 19:00:00 - - - - - - -
28.05.2017 18:00:00 - - - - - - -
28.05.2017 17:00:00 25,1 11,5 7 4 NE 1020,8 20
28.05.2017 16:00:00 - - - - - - -
28.05.2017 15:00:00 - - - - - - -
28.05.2017 14:00:00 22,6 13,0 4 2 NW 1021,9 20
28.05.2017 13:00:00 - - - - - - -
28.05.2017 12:00:00 - - - - - - -
28.05.2017 11:00:00 20,0 12,4 4 2 W 1022,3 20
28.05.2017 10:00:00 - - - - - - -
28.05.2017 09:00:00 - - - - - - -
28.05.2017 08:00:00 14,7 10,3 4 2 W 1022,0 20
28.05.2017 07:00:00 - - - - - - -
28.05.2017 06:00:00 - - - - - - -
28.05.2017 05:00:00 13,4 10,0 4 2 NNE 1020,9 20
28.05.2017 04:00:00 - - - - - - -
28.05.2017 03:00:00 - - - - - - -
28.05.2017 02:00:00 15,9 10,3 4 2 NW 1020,4 20
28.05.2017 01:00:00 - - - - - - -
28.05.2017 00:00:00 - - - - - - -
27.05.2017 23:00:00 17,9 11,2 4 2 NE 1020,0 20
27.05.2017 22:00:00 - - - - - - -
27.05.2017 21:00:00 - - - - - - -
27.05.2017 20:00:00 19,8 11,2 7 4 N 1017,9 20
27.05.2017 19:00:00 - - - - - - -
27.05.2017 18:00:00 - - - - - - -
27.05.2017 17:00:00 23,6 8,1 7 4 N 1016,7 20
27.05.2017 16:00:00 - - - - - - -
27.05.2017 15:00:00 - - - - - - -
27.05.2017 14:00:00 23,4 8,8 7 4 N 1017,3 20
27.05.2017 13:00:00 - - - - - - -
27.05.2017 12:00:00 - - - - - - -
27.05.2017 11:00:00 21,4 9,8 7 4 NW 1017,8 20
27.05.2017 10:00:00 - - - - - - -
27.05.2017 09:00:00 - - - - - - -
27.05.2017 08:00:00 16,0 10,6 7 4 W 1017,2 20
27.05.2017 07:00:00 - - - - - - -
27.05.2017 06:00:00 - - - - - - -
27.05.2017 05:00:00 14,2 10,0 4 2 WNW 1016,5 20
27.05.2017 04:00:00 - - - - - - -
27.05.2017 03:00:00 - - - - - - -
27.05.2017 02:00:00 16,8 9,7 4 2 NNE 1016,0 20
27.05.2017 01:00:00 - - - - - - -
27.05.2017 00:00:00 - - - - - - -
26.05.2017 23:00:00 18,8 9,0 7 4 NNW 1015,8 20
26.05.2017 22:00:00 - - - - - - -
26.05.2017 21:00:00 - - - - - - -
26.05.2017 20:00:00 20,6 10,5 4 2 NNW 1014,4 20
26.05.2017 19:00:00 - - - - - - -
26.05.2017 18:00:00 - - - - - - -
26.05.2017 17:00:00 23,0 10,5 7 4 NNW 1014,3 20
26.05.2017 16:00:00 - - - - - - -
26.05.2017 15:00:00 - - - - - - -
26.05.2017 14:00:00 22,4 11,1 7 4 NW 1015,4 20
26.05.2017 13:00:00 - - - - - - -
26.05.2017 12:00:00 - - - - - - -
26.05.2017 11:00:00 18,2 12,4 7 4 NW 1016,7 20
26.05.2017 10:00:00 - - - - - - -
26.05.2017 09:00:00 - - - - - - -
26.05.2017 08:00:00 13,8 11,5 4 2 W 1016,4 20
26.05.2017 07:00:00 - - - - - - -
26.05.2017 06:00:00 - - - - - - -
26.05.2017 05:00:00 13,6 11,5 4 2 W 1015,9 20
26.05.2017 04:00:00 - - - - - - -
26.05.2017 03:00:00 - - - - - - -
26.05.2017 02:00:00 14,2 11,1 4 2 W 1015,9 20
26.05.2017 01:00:00 - - - - - - -
26.05.2017 00:00:00 - - - - - - -
25.05.2017 23:00:00 15,4 10,8 4 2 W 1016,1 20
25.05.2017 22:00:00 - - - - - - -
25.05.2017 21:00:00 - - - - - - -
25.05.2017 20:00:00 17,0 10,0 4 2 W 1015,3 20
25.05.2017 19:00:00 - - - - - - -
25.05.2017 18:00:00 - - - - - - -
25.05.2017 17:00:00 19,0 8,3 7 4 W 1015,6 20
25.05.2017 16:00:00 - - - - - - -
25.05.2017 15:00:00 - - - - - - -
25.05.2017 14:00:00 17,6 7,9 7 4 NW 1016,6 20
25.05.2017 13:00:00 - - - - - - -
25.05.2017 12:00:00 - - - - - - -
25.05.2017 11:00:00 17,6 8,1 7 4 NNW 1017,0 20
25.05.2017 10:00:00 - - - - - - -
25.05.2017 09:00:00 - - - - - - -
25.05.2017 08:00:00 13,9 8,3 7 4 NW 1016,6 20
25.05.2017 07:00:00 - - - - - - -
25.05.2017 06:00:00 - - - - - - -
25.05.2017 05:00:00 13,4 10,9 7 4 W 1015,3 10
25.05.2017 04:00:00 - - - - - - -
25.05.2017 03:00:00 - - - - - - -
25.05.2017 02:00:00 14,8 13,5 4 2 W 1015,4 10
25.05.2017 01:00:00 - - - - - - -
25.05.2017 00:00:00 - - - - - - -
24.05.2017 23:00:00 15,6 15,0 4 2 WSW 1015,6 10
24.05.2017 22:00:00 - - - - - - -
24.05.2017 21:00:00 - - - - - - -
24.05.2017 20:00:00 17,0 15,1 4 2 S 1014,4 10
24.05.2017 19:00:00 - - - - - - -
24.05.2017 18:00:00 - - - - - - -
24.05.2017 17:00:00 18,6 15,3 7 4 W 1015,0 4,0
24.05.2017 16:00:00 - - - - - - -
24.05.2017 15:00:00 - - - - - - -
24.05.2017 14:00:00 21,1 13,4 7 4 W 1014,9 20
24.05.2017 13:00:00 - - - - - - -
24.05.2017 12:00:00 - - - - - - -
24.05.2017 11:00:00 19,2 14,0 4 2 WSW 1017,1 10
24.05.2017 10:00:00 - - - - - - -
24.05.2017 09:00:00 - - - - - - -
24.05.2017 08:00:00 16,2 14,3 4 2 SW 1017,1 10
24.05.2017 07:00:00 - - - - - - -
24.05.2017 06:00:00 - - - - - - -
24.05.2017 05:00:00 15,3 14,3 4 2 SSE 1016,7 10
24.05.2017 04:00:00 - - - - - - -
24.05.2017 03:00:00 - - - - - - -
24.05.2017 02:00:00 16,5 13,5 4 2 NE 1017,4 10
24.05.2017 01:00:00 - - - - - - -
24.05.2017 00:00:00 - - - - - - -
23.05.2017 23:00:00 16,3 13,5 4 2 NW 1017,3 20
23.05.2017 22:00:00 - - - - - - -
23.05.2017 21:00:00 - - - - - - -
23.05.2017 20:00:00 16,6 14,1 7 4 WSW 1016,9 20
23.05.2017 19:00:00 - - - - - - -
23.05.2017 18:00:00 - - - - - - -
23.05.2017 17:00:00 18,7 14,5 4 2 N 1016,1 20
23.05.2017 16:00:00 - - - - - - -
23.05.2017 15:00:00 - - - - - - -
23.05.2017 14:00:00 22,0 16,0 7 4 NNW 1016,1 20
23.05.2017 13:00:00 - - - - - - -
23.05.2017 12:00:00 - - - - - - -
23.05.2017 11:00:00 23,5 14,9 4 2 ENE 1016,9 20
23.05.2017 10:00:00 - - - - - - -
23.05.2017 09:00:00 - - - - - - -
23.05.2017 08:00:00 18,0 14,5 4 2 WSW 1016,8 10
23.05.2017 07:00:00 - - - - - - -
23.05.2017 06:00:00 - - - - - - -
23.05.2017 05:00:00 15,8 14,1 4 2 SSE 1015,6 20
23.05.2017 04:00:00 - - - - - - -
23.05.2017 03:00:00 - - - - - - -
23.05.2017 02:00:00 17,1 14,5 4 2 WSW 1015,7 20
23.05.2017 01:00:00 - - - - - - -
23.05.2017 00:00:00 - - - - - - -
22.05.2017 23:00:00 19,4 14,4 4 2 WSW 1015,5 20
22.05.2017 22:00:00 - - - - - - -
22.05.2017 21:00:00 - - - - - - -
22.05.2017 20:00:00 21,4 12,5 4 2 NW 1014,7 20

tt = temperature
td = dewpoint
ff = wind speed
dd = wind direction
ppp = reduced air pressure
vv = visibility

Next stations